Location: Del Amo
(33.8464°N, 118.2104°W)
Time: 14:46:00
(UTC+00:00)

Courier 1B - Visible Passes

Search period start: 13 September 2024 00:00
Search period end: 23 September 2024 00:00
Orbit: 962 x 1208 km, 28.3° (Epoch: 12 September)

Date Brightness Start Highest point End Pass type
(mag) Time Alt. Az. Time Alt. Az. Time Alt. Az.
13 Sep 8.6 02:40:24 10° W 02:47:49 46° SSW 02:54:51 11° SE visible
13 Sep 9.3 04:35:39 10° WSW 04:41:31 23° SSW 04:41:44 23° SSW visible
14 Sep 9.2 03:41:09 10° W 03:47:41 29° SSW 03:51:16 21° SSE visible
15 Sep 9.0 02:46:52 10° W 02:53:48 35° SSW 03:00:45 10° SE visible
15 Sep 9.8 04:43:35 10° WSW 04:47:20 14° SSW 04:47:44 14° SSW visible
16 Sep 9.7 03:48:21 10° WSW 03:53:32 19° SSW 03:57:22 14° S visible
17 Sep 9.5 02:53:42 10° WSW 02:59:43 25° SSW 03:05:46 10° SSE visible
18 Sep 10.1 03:57:52 10° SW 03:59:22 11° SSW 04:00:51 10° SSW visible
19 Sep 10.0 03:01:28 10° WSW 03:05:34 15° SSW 03:09:43 10° S visible
20 Sep 9.9 02:06:31 10° WSW 02:11:46 20° SSW 02:17:07 10° SSE visible
22 Sep 10.3 02:15:33 10° SW 02:17:38 11° SSW 02:19:44 10° SSW visible
